This demonstration page uses our WeatherBlox Daily Observations layout. Learn more.

Left ArrowRight Arrow

Hourly Observations for May 30, 2018

Temp ( °F °C ) Dew Point ( °F °C ) Humidity (%) Winds ( mph kmh ) Pressure ( in mb ) Visibility ( mi km ) Precip ( " mm )
12:53 am 00:53 Clear 75 23.9 40 4.4 28 28 NNW 5 7 29.60 1003 10 16 0.00 0.00
1:53 am 01:53 Clear 73 22.8 43 6.1 34 34 NW 5 7 29.61 1003 10 16 0.00 0.00
2:53 am 02:53 Clear 71 21.7 45 7.2 39 39 Calm 29.60 1002 10 16 0.00 0.00
3:53 am 03:53 Clear 64 17.8 50 10 60 60 Calm 29.60 1003 10 16 0.00 0.00
4:53 am 04:53 Clear 62 16.7 50 10 65 65 Calm 29.61 1003 10 16 0.00 0.00
5:53 am 05:53 Sunny 61 16.1 50 10 67 67 Calm 29.62 1003 10 16 0.00 0.00
6:53 am 06:53 Sunny 63 17.2 54 12.2 73 73 Calm 29.63 1004 10 16 0.00 0.00
7:53 am 07:53 Sunny 70 21.1 48 8.9 46 46 W 3 6 29.64 1004 10 16 0.00 0.00
8:53 am 08:53 Sunny 74 23.3 49 9.4 41 41 Calm 29.65 1004 10 16 0.00 0.00
9:53 am 09:53 Sunny 77 25 47 8.3 35 35 SSW 7 11 29.65 1004 10 16 0.00 0.00
10:53 am 10:53 Sunny 78 25.6 50 10 37 37 S 9 15 29.65 1004 10 16 0.00 0.00
11:53 am 11:53 Sunny 80 26.7 49 9.4 34 34 S 10 17 29.64 1004 10 16 0.00 0.00
12:53 pm 12:53 Sunny 81 27.2 48 8.9 32 32 S 12 19 29.63 1004 10 16 0.00 0.00
1:53 pm 13:53 Sunny 81 27.2 47 8.3 30 30 SSE 17 28 29.63 1003 10 16 0.00 0.00
2:53 pm 14:53 Sunny 82 27.8 51 10.6 34 34 SSW 12 19 29.61 1003 10 16 0.00 0.00
3:53 pm 15:53 Sunny 84 28.9 52 11.1 33 33 S 17 28 29.60 1003 10 16 0.00 0.00
4:53 pm 16:53 Sunny 83 28.3 49 9.4 31 31 S 15 24 29.60 1002 10 16 0.00 0.00
5:53 pm 17:53 Sunny 82 27.8 47 8.3 29 29 S 17 28 29.59 1002 10 16 0.00 0.00
6:53 pm 18:53 Mostly Cloudy 79 26.1 51 10.6 38 38 S 15 24 29.60 1002 10 16 0.00 0.00
7:53 pm 19:53 Cloudy 76 24.4 48 8.9 37 37 S 16 26 29.62 1003 10 16 0.00 0.00
8:53 pm 20:53 Cloudy 74 23.3 43 6.1 33 33 S 16 26 29.63 1004 10 16 0.00 0.00
9:53 pm 21:53 Mostly Clear 72 22.2 42 5.6 34 34 S 17 28 29.65 1004 10 16 0.00 0.00
10:53 pm 22:53 Mostly Cloudy 70 21.1 42 5.6 37 37 undefined N/A 29.69 1005 10 16 0.00 0.00
11:53 pm 23:53 Mostly Cloudy 67 19.4 44 6.7 44 44 SW 16 26 29.70 1006 10 16 0.00 0.00

Powered by AerisWeather